Change the Weather History Date:

Saturday, October 20, 2012

  Actual Average Record
Temperature  
Mean Temperature 34 °F -  
Max Temperature 39 °F 37 °F 75 °F (2014)
Min Temperature 30 °F 18 °F 15 °F (1997)
Degree Days  
Heating Degree Days 30    
Moisture  
Dew Point 33 °F    
Average Humidity 94    
Maximum Humidity 100    
Minimum Humidity 81    
Precipitation  
Precipitation 0.00 in 0.02 in - ()
Sea Level Pressure  
Sea Level Pressure 29.47 in    
Wind  
Wind Speed 8 mph ()    
Max Wind Speed 20 mph    
Max Gust Speed 26 mph    
Visibility 8.1 miles    
Events Fog    
Averages and records for this station are not official NWS values.
T = Trace of Precipitation, MM = Missing Value Source: Averaged Metar Reports

Daily Weather History Graph

Daily Weather History Graph

Search for Another Location

Airport or City:

Trip Planner

Search our weather history database for the weather conditions in past years. The results will help you decide how hot, cold, wet, or windy it might be!

Date:

Astronomy

Oct. 20, 2012 Rise Set
Actual Time 7:41 AM CST 6:00 PM CST
Civil Twilight 7:06 AM CST 6:34 PM CST
Nautical Twilight 6:27 AM CST 7:14 PM CST
Astronomical Twilight 5:48 AM CST 7:53 PM CST
Moon 1:42 PM CST (10/20) 10:29 PM CST (10/20)
Length of Visible Light 11h 28m
Length of Day
10h 18m
Waxing Crescent, 35% of the Moon is Illuminated
Oct 20
Waxing Crescent
Oct 21
First Quarter
Oct 29
Full
Nov 6
Last Quarter
Nov 13
New

Hourly Weather History & Observations

Time (CST) Temp. Windchill Dew Point Humidity Pressure Visibility Wind Dir Wind Speed Gust Speed Precip Events Conditions
12:00 AM 32.0 °F 23.6 °F 32.0 °F 100% 29.44 in 15.0 mi NNE 10.4 mph - N/A   Clear
1:00 AM 30.2 °F 22.6 °F 30.2 °F 100% 29.44 in 15.0 mi NNE 8.1 mph - N/A   Clear
2:00 AM 30.2 °F 25.4 °F 28.4 °F 93% 29.44 in 15.0 mi NE 4.6 mph - N/A   Clear
3:00 AM 30.2 °F 25.4 °F 30.2 °F 100% 29.44 in 15.0 mi North 4.6 mph - N/A   Scattered Clouds
4:00 AM 30.2 °F 23.4 °F 30.2 °F 100% 29.43 in 15.0 mi North 6.9 mph - N/A   Mostly Cloudy
5:00 AM 32.0 °F 23.6 °F 30.2 °F 93% 29.41 in 15.0 mi North 10.4 mph - N/A   Mostly Cloudy
5:18 AM 32.0 °F 25.6 °F 30.2 °F 93% 29.42 in 15.0 mi North 6.9 mph - N/A   Overcast
5:37 AM 32.0 °F 26.4 °F 30.2 °F 93% 29.43 in 2.0 mi NNW 5.8 mph - N/A   Overcast
5:49 AM 32.0 °F 26.4 °F 32.0 °F 100% 29.42 in 1.0 mi North 5.8 mph - N/A   Overcast
6:00 AM 32.0 °F 25.6 °F 32.0 °F 100% 29.41 in 0.5 mi North 6.9 mph - N/A Fog Light Freezing Fog
7:00 AM 32.0 °F 24.8 °F 32.0 °F 100% 29.41 in 1.0 mi North 8.1 mph - N/A   Overcast
7:52 AM 32.0 °F 23.6 °F 32.0 °F 100% 29.39 in 0.5 mi NNE 10.4 mph - N/A Fog Light Freezing Fog
8:00 AM 32.0 °F 27.5 °F 32.0 °F 100% 29.40 in 0.5 mi North 4.6 mph - N/A Fog Light Freezing Fog
8:24 AM 32.0 °F 28.7 °F 32.0 °F 100% 29.41 in 0.8 mi NNW 3.5 mph - N/A   Mist
8:54 AM 33.8 °F - 32.0 °F 93% 29.42 in 1.0 mi NNW 2.3 mph - N/A   Mist
9:00 AM 33.8 °F 30.8 °F 32.0 °F 93% 29.42 in 1.0 mi NNW 3.5 mph - N/A   Mist
9:39 AM 33.8 °F 30.8 °F 33.8 °F 100% 29.40 in 2.0 mi North 3.5 mph - N/A   Mist
10:00 AM 33.8 °F 29.6 °F 33.8 °F 100% 29.39 in 3.0 mi NE 4.6 mph - N/A   Mist
11:00 AM 33.8 °F - 33.8 °F 100% 29.40 in 2.5 mi East 2.3 mph - N/A   Mist
11:33 AM 35.6 °F - 33.8 °F 93% 29.40 in 4.0 mi Calm Calm - N/A   Mist
12:00 PM 35.6 °F 29.2 °F 33.8 °F 93% 29.41 in 4.0 mi SW 8.1 mph - N/A   Mist
1:00 PM 37.4 °F 29.3 °F 35.6 °F 93% 29.42 in 4.0 mi West 12.7 mph - N/A   Mist
1:33 PM 37.4 °F 28.2 °F 35.6 °F 93% 29.44 in 2.5 mi West 16.1 mph - N/A   Light Drizzle
2:00 PM 37.4 °F 29.8 °F 37.4 °F 100% 29.44 in 2.0 mi West 11.5 mph 17.3 mph N/A   Light Drizzle
2:10 PM 37.4 °F 28.9 °F 35.6 °F 93% 29.45 in 4.0 mi West 13.8 mph 19.6 mph N/A   Overcast
2:25 PM 37.4 °F 29.3 °F 35.6 °F 93% 29.45 in 4.0 mi WNW 12.7 mph - N/A   Light Drizzle
2:44 PM 37.4 °F 28.5 °F 35.6 °F 93% 29.46 in 10.0 mi WNW 15.0 mph 20.7 mph N/A   Overcast
3:00 PM 37.4 °F 27.5 °F 35.6 °F 93% 29.47 in 15.0 mi West 18.4 mph - N/A   Overcast
4:00 PM 39.2 °F 30.5 °F 33.8 °F 81% 29.51 in 15.0 mi West 16.1 mph - N/A   Overcast
5:00 PM 37.4 °F 28.5 °F 33.8 °F 87% 29.55 in 15.0 mi WNW 15.0 mph 24.2 mph N/A   Overcast
6:00 PM 35.6 °F 29.2 °F 32.0 °F 87% 29.59 in 15.0 mi West 8.1 mph - N/A   Mostly Cloudy
7:00 PM 37.4 °F 27.2 °F 33.8 °F 87% 29.61 in 15.0 mi West 19.6 mph 26.5 mph N/A   Overcast
8:00 PM 37.4 °F 29.3 °F 32.0 °F 81% 29.63 in 15.0 mi West 12.7 mph 19.6 mph N/A   Overcast
9:00 PM 35.6 °F 27.1 °F 32.0 °F 87% 29.65 in 15.0 mi West 12.7 mph 19.6 mph N/A   Overcast
10:00 PM 33.8 °F 25.8 °F 30.2 °F 87% 29.67 in 15.0 mi WSW 10.4 mph - N/A   Overcast
11:00 PM 35.6 °F 27.5 °F 32.0 °F 87% 29.68 in 15.0 mi West 11.5 mph - N/A   Overcast